RYR4HB LGSA-LIME

Flight info

Callsign RYR4HB
Flight time N/A
Altitude 36000
Route SOKRI5A SOKRI UJ65 TRL DCT ENESI UM872 LATAN DCT VIE DCT ANC DCT BOA DCT OGPUD DCT BETMU DCT OSBUL OSBUL4E
Aircraft A320/M-SDE3FGHIRWY/LB1

Departure

Time 2026-05-04 15:13
Airport Chania International Airport (LGSA)

Arrival

Time N/A
Airport Il Caravaggio International Airport (LIME)
Time Latitude Longitude Altitude Speed Heading
2026-05-04 14:40 35.53864 24.14112 498 ft 0 kts 21°
2026-05-04 15:02 35.53844 24.14102 506 ft 4 kts 24°
2026-05-04 15:02 35.53820 24.14087 488 ft 4 kts 32°
2026-05-04 15:02 35.53799 24.14067 487 ft 4 kts 54°
2026-05-04 15:02 35.53792 24.14043 493 ft 2 kts 111°
2026-05-04 15:03 35.53794 24.14037 492 ft 2 kts 111°
2026-05-04 15:07 35.53795 24.14037 492 ft 0 kts 111°
2026-05-04 15:07 35.53792 24.14045 493 ft 2 kts 111°
2026-05-04 15:07 35.53781 24.14077 488 ft 6 kts 112°
2026-05-04 15:07 35.53761 24.14140 493 ft 10 kts 111°
2026-05-04 15:08 35.53731 24.14234 495 ft 13 kts 111°
2026-05-04 15:08 35.53695 24.14344 496 ft 15 kts 115°
2026-05-04 15:08 35.53606 24.14343 490 ft 15 kts 199°
2026-05-04 15:08 35.53540 24.14426 498 ft 16 kts 111°
2026-05-04 15:09 35.53497 24.14560 494 ft 18 kts 111°
2026-05-04 15:09 35.53449 24.14708 491 ft 19 kts 111°
2026-05-04 15:09 35.53397 24.14868 493 ft 21 kts 112°
2026-05-04 15:10 35.53280 24.15226 496 ft 24 kts 111°
2026-05-04 15:10 35.53217 24.15423 491 ft 25 kts 111°
2026-05-04 15:10 35.53078 24.15849 497 ft 28 kts 111°
2026-05-04 15:11 35.53004 24.16075 498 ft 30 kts 112°
2026-05-04 15:11 35.52952 24.16237 494 ft 31 kts 111°
2026-05-04 15:11 35.52846 24.16564 497 ft 30 kts 112°
2026-05-04 15:11 35.52773 24.16787 494 ft 27 kts 112°
2026-05-04 15:12 35.52740 24.16877 493 ft 15 kts 127°
2026-05-04 15:12 35.52646 24.16855 499 ft 15 kts 201°
2026-05-04 15:12 35.52613 24.16708 495 ft 24 kts 291°
2026-05-04 15:12 35.52759 24.16258 499 ft 87 kts 291°
2026-05-04 15:13 35.53048 24.15367 488 ft 136 kts 291°
2026-05-04 15:13 35.53302 24.14576 603 ft 150 kts 291°
2026-05-04 15:13 35.53681 24.13423 1263 ft 143 kts 294°
2026-05-04 15:13 35.54167 24.11914 1981 ft 147 kts 291°
2026-05-04 15:14 35.54411 24.11103 2269 ft 153 kts 290°
2026-05-04 15:14 35.54784 24.09857 2715 ft 159 kts 291°
2026-05-04 15:14 35.55184 24.08562 3179 ft 166 kts 291°
2026-05-04 15:14 35.55743 24.06760 3806 ft 175 kts 291°
2026-05-04 15:15 35.56189 24.05320 4169 ft 190 kts 291°
2026-05-04 15:15 35.56689 24.03704 4398 ft 214 kts 292°
2026-05-04 15:15 35.57050 24.02540 4701 ft 225 kts 292°
2026-05-04 15:16 35.58384 23.98224 6510 ft 235 kts 294°
2026-05-04 15:16 35.58966 23.96342 7312 ft 237 kts 294°
2026-05-04 15:16 35.60150 23.92523 8822 ft 245 kts 295°
2026-05-04 15:17 35.60762 23.90552 9582 ft 248 kts 295°
2026-05-04 15:17 35.62008 23.86538 10990 ft 255 kts 296°
2026-05-04 15:17 35.62614 23.85231 11149 ft 266 kts 312°
2026-05-04 15:18 35.63947 23.83521 11328 ft 288 kts 317°
2026-05-04 15:18 35.65423 23.81714 11467 ft 310 kts 317°
2026-05-04 15:18 35.67508 23.79171 12045 ft 324 kts 316°
2026-05-04 15:19 35.70720 23.75229 13411 ft 328 kts 316°
2026-05-04 15:19 35.71812 23.73884 13915 ft 328 kts 316°
2026-05-04 15:19 35.75557 23.69270 15494 ft 328 kts 316°
2026-05-04 15:20 35.77168 23.67284 16140 ft 328 kts 316°
2026-05-04 15:20 35.78259 23.65938 16559 ft 329 kts 316°
2026-05-04 15:20 35.79879 23.63940 17183 ft 330 kts 316°
2026-05-04 15:20 35.81476 23.61964 17864 ft 330 kts 316°
2026-05-04 15:21 35.83095 23.59959 18551 ft 330 kts 316°
2026-05-04 15:21 35.84730 23.57926 19140 ft 331 kts 316°
2026-05-04 15:21 35.87978 23.53896 20238 ft 336 kts 316°
2026-05-04 15:22 35.89629 23.51845 20764 ft 339 kts 316°
2026-05-04 15:22 35.91320 23.49748 21285 ft 341 kts 316°
2026-05-04 15:22 35.94671 23.45588 22250 ft 347 kts 316°
2026-05-04 15:23 35.96376 23.43471 22719 ft 349 kts 316°
2026-05-04 15:23 35.98096 23.41329 23111 ft 353 kts 316°
2026-05-04 15:23 35.99835 23.39165 23526 ft 357 kts 316°
2026-05-04 15:23 36.01589 23.36983 23920 ft 359 kts 316°
2026-05-04 15:24 36.05123 23.32583 24700 ft 362 kts 316°
2026-05-04 15:24 36.08675 23.28145 25474 ft 364 kts 316°
2026-05-04 15:25 36.10460 23.25911 25846 ft 366 kts 316°
2026-05-04 15:25 36.12249 23.23671 26207 ft 367 kts 316°
2026-05-04 15:25 36.14046 23.21420 26588 ft 368 kts 316°
2026-05-04 15:26 36.17656 23.16897 27320 ft 371 kts 316°
2026-05-04 15:26 36.19476 23.14615 27679 ft 372 kts 315°
2026-05-04 15:26 36.23121 23.10033 28350 ft 375 kts 315°
2026-05-04 15:27 36.24934 23.07749 28623 ft 377 kts 315°
2026-05-04 15:27 36.28597 23.03136 29620 ft 373 kts 315°
2026-05-04 15:28 36.32213 22.98579 30638 ft 368 kts 315°
2026-05-04 15:28 36.34002 22.96318 31053 ft 367 kts 315°
2026-05-04 15:28 36.37571 22.91818 31872 ft 364 kts 315°
2026-05-04 15:29 36.39343 22.89580 32275 ft 363 kts 315°
2026-05-04 15:30 36.46389 22.80661 33869 ft 360 kts 315°
2026-05-04 15:30 36.51645 22.73998 34670 ft 362 kts 315°
2026-05-04 15:31 36.55179 22.69508 35115 ft 364 kts 315°
2026-05-04 15:31 36.56949 22.67251 35345 ft 365 kts 315°
2026-05-04 15:32 36.62296 22.60433 36006 ft 368 kts 315°
2026-05-04 15:32 36.65915 22.55820 36104 ft 378 kts 315°
2026-05-04 15:34 36.75220 22.43890 36108 ft 387 kts 315°
2026-05-04 15:34 36.80841 22.36680 36109 ft 388 kts 315°
2026-05-04 15:35 36.86478 22.29416 36116 ft 388 kts 315°
2026-05-04 15:36 36.92114 22.22148 36122 ft 389 kts 315°
2026-05-04 15:36 36.95874 22.17288 36123 ft 388 kts 315°
2026-05-04 15:37 36.99634 22.12427 36119 ft 388 kts 315°
2026-05-04 15:37 37.03389 22.07560 36119 ft 389 kts 315°
2026-05-04 15:38 37.07149 22.02680 36121 ft 389 kts 315°
2026-05-04 15:38 37.10902 21.97794 36123 ft 389 kts 315°
2026-05-04 15:39 37.14665 21.92892 36125 ft 390 kts 315°
2026-05-04 15:40 37.20293 21.85539 36131 ft 390 kts 315°
2026-05-04 15:40 37.24022 21.80662 36134 ft 390 kts 315°
2026-05-04 15:41 37.27785 21.75750 36127 ft 390 kts 315°
2026-05-04 15:41 37.31544 21.70831 36142 ft 390 kts 315°
2026-05-04 15:42 37.35299 21.65889 36141 ft 391 kts 315°
2026-05-04 15:42 37.39052 21.60950 36145 ft 391 kts 315°
2026-05-04 15:43 37.42809 21.56004 36146 ft 391 kts 315°
2026-05-04 15:43 37.46563 21.51052 36147 ft 391 kts 315°
2026-05-04 15:44 37.50315 21.46098 36146 ft 391 kts 315°
2026-05-04 15:44 37.54041 21.41167 36145 ft 391 kts 315°
2026-05-04 15:45 37.57815 21.36168 36144 ft 391 kts 315°
2026-05-04 15:45 37.61535 21.31223 36156 ft 391 kts 315°
2026-05-04 15:46 37.65284 21.26241 36153 ft 392 kts 315°
2026-05-04 15:46 37.69030 21.21249 36152 ft 392 kts 315°
2026-05-04 15:47 37.72773 21.16251 36148 ft 392 kts 315°
2026-05-04 15:47 37.76517 21.11246 36133 ft 392 kts 315°
2026-05-04 15:48 37.80263 21.06238 36134 ft 392 kts 315°
2026-05-04 15:48 37.85895 20.98697 36140 ft 393 kts 314°
2026-05-04 15:49 37.89641 20.93661 36159 ft 393 kts 315°
2026-05-04 15:49 37.93393 20.88606 36154 ft 393 kts 315°
2026-05-04 15:50 37.97139 20.83559 36142 ft 393 kts 315°
2026-05-04 15:50 38.00873 20.78521 36113 ft 394 kts 314°
2026-05-04 15:51 38.04624 20.73456 36119 ft 394 kts 314°
2026-05-04 15:51 38.08378 20.68373 36128 ft 395 kts 314°
2026-05-04 15:52 38.12138 20.63271 36135 ft 395 kts 314°
2026-05-04 15:52 38.15893 20.58177 36177 ft 395 kts 314°
2026-05-04 15:53 38.19621 20.53099 36193 ft 395 kts 314°
2026-05-04 15:53 38.23377 20.47969 36186 ft 396 kts 314°